TJS-1

Last updated on Jan. 15, 2021, 6:31 a.m. UTC

1 40892U 15046A   21014.72202039 -.00000164  00000-0  00000+0 0  9993
2 40892   0.1080 263.1221 0006970 101.8825 164.1959  1.00272439 19708
UTC
Height (km)
Latitude
Longitude
Inclination
Orbital Period
UTC large
Height (km)
Speed (km/s)
/
Latitude / Longitude
Inclination (degrees)
Orbital Period (minutes)
Azimuth
Elevation
Range (km)
Doppler Factor
iOS Compass Heading
iOS Angle

Next 30 passes for location: Hong Kong

Rise time Rise Azimuth (degrees) Set time Set Azimuth (degrees) Duration Max altitude (degrees)

No matching passes for this satellites